Date,TemperatureHighF,TemperatureAvgF,TemperatureLowF,DewpointHighF,DewpointAvgF,DewpointLowF,HumidityHigh,HumidityAvg,HumidityLow,PressureMaxIn,PressureMinIn,WindSpeedMaxMPH,WindSpeedAvgMPH,GustSpeedMaxMPH,PrecipitationSumIn
2013-1-1,40,37,31,26,24,15,64,58,51,30.03,29.87,4,3,18,0.00
2013-1-2,32,28,24,15,12,10,58,51,42,30.21,30.00,5,2,18,0.00
2013-1-3,33,27,22,16,13,10,70,56,41,30.21,30.11,4,1,16,0.00
2013-1-4,37,33,28,19,18,16,63,53,46,30.14,30.02,7,3,29,0.00
2013-1-5,40,33,28,22,18,16,71,56,44,30.34,30.07,6,2,22,0.00
2013-1-6,47,38,32,31,27,22,89,65,40,30.23,30.00,4,1,17,0.02
2013-1-7,45,37,27,28,25,22,83,63,44,30.41,30.08,5,1,16,0.00
2013-1-8,48,35,25,32,27,21,88,74,50,30.42,30.36,4,1,14,0.01
2013-1-9,49,39,28,37,32,25,92,77,61,30.39,30.18,4,1,14,0.00
2013-1-10,48,41,35,31,25,22,71,54,40,30.54,30.29,7,2,15,0.00
2013-1-11,45,40,32,43,34,26,96,80,68,30.52,30.07,2,1,10,0.44
2013-1-12,50,44,41,47,43,39,99,95,88,30.17,30.08,2,0,6,0.01
2013-1-13,49,46,43,48,44,42,97,95,90,30.15,29.99,2,1,11,0.01
2013-1-14,53,50,40,53,46,36,100,89,64,30.29,29.92,4,1,12,0.20
2013-1-15,40,37,35,38,31,27,95,78,67,30.35,30.20,4,2,12,0.22
2013-1-16,36,34,32,35,33,30,97,94,89,30.19,29.83,4,1,13,0.83
2013-1-17,42,38,36,35,30,28,96,74,59,30.10,29.94,7,2,17,0.00
2013-1-18,36,30,26,28,14,5,77,52,37,30.49,30.02,9,4,24,0.00
2013-1-19,49,38,28,29,23,10,73,56,41,30.41,29.94,6,4,24,0.00
2013-1-20,54,42,30,29,22,8,68,46,20,30.06,29.76,8,5,34,0.00
2013-1-21,32,28,24,22,10,5,82,49,36,30.11,29.86,6,2,22,0.00
2013-1-22,24,18,13,7,-5,-11,51,36,26,30.26,29.88,8,6,28,0.00
2013-1-23,20,14,11,2,-4,-9,66,45,33,30.29,30.18,5,2,19,0.00
2013-1-24,23,18,12,6,-1,-10,70,45,23,30.45,30.12,10,4,23,0.00
2013-1-25,22,16,10,12,1,-6,78,54,34,30.46,30.07,4,2,16,0.06
2013-1-26,26,18,6,11,7,0,82,64,43,30.40,30.07,7,2,18,0.00
2013-1-27,33,21,10,14,10,4,78,63,40,30.57,30.40,6,1,13,0.00
2013-1-28,35,30,21,34,26,14,94,83,69,30.50,30.03,4,1,11,0.20
2013-1-29,51,42,33,44,40,31,99,91,78,30.15,30.02,3,1,11,0.00
2013-1-30,66,53,40,59,51,39,100,93,76,30.03,29.37,7,3,24,0.46
2013-1-31,60,55,43,60,50,26,100,86,51,29.41,29.11,10,6,50,0.76
2013-2-1,29,26,21,19,6,0,78,43,29,30.28,29.83,8,5,26,0.00
2013-2-2,28,23,16,20,5,0,83,49,30,30.32,30.03,5,3,21,0.00
2013-2-3,29,26,23,23,20,18,87,79,66,30.03,29.81,3,1,12,0.03
2013-2-4,29,25,19,19,10,7,69,53,41,30.04,29.87,7,3,21,0.00
2013-2-5,34,30,28,29,25,20,89,80,71,29.95,29.88,2,0,7,0.01
2013-2-6,38,31,25,29,23,18,91,73,47,30.35,29.93,6,2,19,0.01
2013-2-7,34,28,21,19,15,10,80,58,40,30.48,30.27,4,2,11,0.00
2013-2-8,36,34,31,33,30,20,93,85,61,30.26,29.69,6,4,18,0.22
2013-2-9,32,27,22,30,16,6,93,67,44,30.37,29.78,11,5,26,0.03
2013-2-10,39,28,16,19,10,5,69,49,23,30.49,30.30,6,2,14,0.01
2013-2-11,48,40,33,48,36,20,100,89,58,30.30,29.67,4,1,11,0.43
2013-2-12,45,39,29,40,25,21,93,59,39,29.99,29.77,8,3,26,0.00
2013-2-13,44,34,24,31,26,21,95,75,51,29.97,29.68,3,1,12,0.02
2013-2-14,46,36,31,34,30,28,98,80,53,30.01,29.73,5,1,13,0.30
2013-2-15,56,42,29,35,31,26,92,67,40,30.03,29.92,5,2,17,0.02
2013-2-16,36,34,30,33,25,13,95,72,47,29.99,29.77,7,4,16,0.04
2013-2-17,30,26,20,17,4,-3,67,38,30,30.08,29.75,10,7,30,0.00
2013-2-18,35,26,18,12,5,-2,50,41,29,30.32,30.09,7,4,25,0.00
2013-2-19,43,38,30,41,28,11,93,70,44,30.19,29.70,6,3,23,0.21
2013-2-20,34,29,24,27,12,7,75,49,38,30.06,29.78,8,6,30,0.00
2013-2-21,34,28,23,15,11,7,58,50,42,30.31,30.04,9,6,24,0.00
2013-2-22,37,30,22,30,20,12,83,65,57,30.40,30.24,5,2,12,0.00
2013-2-23,45,40,34,45,39,30,100,98,84,30.25,29.81,4,1,12,0.12
2013-2-24,45,38,30,40,31,19,100,78,56,30.03,29.78,9,3,22,0.00
2013-2-25,44,35,27,28,24,19,84,65,52,30.23,30.03,6,2,13,0.00
2013-2-26,44,35,25,36,30,23,98,82,62,30.25,29.79,9,3,25,0.47
2013-2-27,51,44,37,47,41,36,100,88,67,29.78,29.50,8,4,21,0.16
2013-2-28,45,42,36,37,33,28,91,73,53,29.67,29.59,5,2,16,0.00
2013-3-1,44,37,30,31,28,26,93,72,55,29.82,29.65,7,3,19,0.00
2013-3-2,39,35,32,26,22,20,70,60,50,29.82,29.73,7,5,19,0.00
2013-3-3,36,31,26,20,16,14,67,54,43,29.81,29.73,7,5,23,0.00
2013-3-4,40,33,29,19,17,13,60,51,41,29.95,29.81,8,6,27,0.00
2013-3-5,46,37,29,28,24,19,72,58,47,30.04,29.94,6,3,17,0.00
2013-3-6,40,37,34,36,33,28,91,83,72,29.94,29.76,9,6,34,0.10
2013-3-7,46,39,35,30,27,25,82,62,49,30.10,29.93,8,7,20,0.00
2013-3-8,43,35,29,31,28,24,95,77,58,30.23,30.06,8,6,23,0.10
2013-3-9,60,42,28,27,21,11,72,48,15,30.30,30.21,4,2,12,0.00
2013-3-10,57,42,27,36,28,20,87,61,32,30.36,30.25,5,2,13,0.00
2013-3-11,59,47,38,48,42,34,100,85,53,30.30,30.06,5,2,15,0.00
2013-3-12,56,51,41,55,48,35,97,89,74,30.06,29.69,7,4,24,1.10
2013-3-13,49,40,32,35,28,22,87,63,39,29.96,29.84,6,3,24,0.00
2013-3-14,40,35,29,21,13,8,62,42,28,30.01,29.93,9,6,29,0.00
2013-3-15,51,39,27,32,19,8,61,44,35,30.03,29.74,6,3,22,0.00
2013-3-16,44,37,32,32,29,22,97,76,51,29.92,29.76,4,2,10,0.10
2013-3-17,38,33,27,32,23,17,97,68,45,30.29,29.92,7,2,15,0.07
2013-3-18,39,33,29,32,22,11,89,65,45,30.36,29.91,5,3,18,0.51
2013-3-19,50,40,35,38,32,20,92,74,39,29.91,29.71,7,4,22,0.26
2013-3-20,46,39,31,23,17,14,58,42,27,29.93,29.79,7,4,29,0.00
2013-3-21,39,33,28,27,17,8,86,55,31,29.82,29.68,7,4,18,0.00
2013-3-22,41,33,27,20,17,9,66,53,42,29.94,29.78,7,4,22,0.00
2013-3-23,47,37,29,22,20,18,63,49,36,29.96,29.88,8,4,24,0.00
2013-3-24,45,37,27,26,21,18,76,55,38,29.99,29.69,5,2,14,0.00
2013-3-25,38,35,32,34,30,26,97,85,62,29.69,29.49,5,2,14,0.51
2013-3-26,49,40,33,36,33,28,98,78,45,29.91,29.64,5,2,20,0.00
2013-3-27,49,40,29,34,30,26,93,69,41,30.03,29.91,6,3,24,0.00
2013-3-28,46,41,32,30,28,24,81,61,42,30.15,30.01,7,3,18,0.00
2013-3-29,52,44,30,33,29,25,83,57,42,30.19,30.10,6,2,17,0.00
2013-3-30,57,44,30,31,27,21,91,57,24,30.20,30.10,5,2,17,0.00
2013-3-31,57,46,35,48,37,28,100,74,40,30.14,29.72,6,2,24,0.11
2013-4-1,62,48,38,47,37,13,100,68,32,29.94,29.68,8,4,26,0.00
2013-4-2,44,37,30,15,11,7,49,34,22,30.12,29.95,7,4,25,0.00
2013-4-3,46,38,29,14,12,6,50,35,22,30.32,30.12,7,4,23,0.00
2013-4-4,51,38,26,26,17,11,68,44,27,30.42,30.10,4,2,15,0.00
2013-4-5,62,48,38,34,26,15,86,48,20,30.10,29.77,7,3,21,0.00
2013-4-6,52,43,34,26,17,10,55,37,19,30.32,30.03,6,4,17,0.00
2013-4-7,62,50,38,44,35,27,76,59,44,30.31,30.01,7,4,23,0.00
2013-4-8,76,62,45,50,45,41,90,58,32,30.09,29.98,5,2,15,0.00
2013-4-9,83,71,56,52,49,41,83,49,23,30.02,29.93,7,3,22,0.00
2013-4-10,87,74,61,60,54,50,95,54,32,29.95,29.79,10,3,35,0.46
2013-4-11,67,60,49,62,55,44,100,86,68,29.97,29.81,6,3,20,0.00
2013-4-12,49,45,42,46,44,42,100,97,84,29.95,29.69,8,4,21,0.82
2013-4-13,59,50,38,46,38,32,100,69,37,29.98,29.76,5,2,20,0.00
2013-4-14,61,51,38,39,33,24,91,56,29,30.16,29.99,7,2,22,0.00
2013-4-15,58,51,46,41,36,30,69,56,46,30.35,30.17,4,3,17,0.00
2013-4-16,70,59,45,55,49,41,89,69,56,30.35,30.13,7,3,21,0.00
2013-4-17,71,61,56,58,49,40,100,67,33,30.28,30.10,5,2,14,0.00
2013-4-18,61,56,52,57,49,37,93,77,53,30.31,30.08,4,2,15,0.00
2013-4-19,76,66,55,65,61,53,97,85,63,30.07,29.63,8,4,26,0.40
2013-4-20,58,50,44,52,34,24,95,56,31,30.32,29.74,6,4,21,0.11
2013-4-21,53,44,35,28,21,17,57,40,27,30.60,30.33,7,3,17,0.00
2013-4-22,51,43,32,38,31,28,86,63,45,30.61,30.46,6,3,20,0.00
2013-4-23,49,45,41,42,37,32,85,73,64,30.45,30.15,5,3,14,0.00
2013-4-24,70,55,37,54,46,36,95,74,56,30.14,29.82,6,3,21,0.00
2013-4-25,63,53,43,55,30,20,81,45,19,30.28,29.90,8,4,25,0.00
2013-4-26,63,51,38,36,31,22,84,51,21,30.43,30.28,5,2,15,0.00
2013-4-27,68,54,36,38,31,25,86,47,20,30.45,30.29,4,2,13,0.00
2013-4-28,69,58,42,44,35,25,82,47,24,30.31,30.19,5,2,16,0.00
2013-4-29,56,54,51,56,52,42,100,93,63,30.22,30.13,3,2,14,0.40
2013-4-30,67,58,49,53,43,28,100,65,28,30.33,30.17,5,3,16,0.00
2013-5-1,67,54,38,44,35,24,89,55,20,30.47,30.33,5,2,17,0.00
2013-5-2,71,56,39,44,40,31,97,61,23,30.47,30.33,4,1,12,0.00
2013-5-3,63,55,46,43,38,30,86,56,30,30.43,30.34,6,3,17,0.00
2013-5-4,68,54,39,44,39,33,94,62,29,30.37,30.22,5,2,15,0.00
2013-5-5,63,51,40,42,39,37,92,65,42,30.28,30.20,4,2,13,0.00
2013-5-6,67,55,44,53,48,40,94,78,57,30.25,30.13,4,2,13,0.00
2013-5-7,70,60,52,62,56,49,100,88,67,30.15,30.05,4,2,14,0.17
2013-5-8,72,62,58,63,59,54,100,89,53,30.05,29.94,3,2,11,0.73
2013-5-9,70,62,56,58,56,53,100,84,58,29.99,29.93,4,1,14,0.47
2013-5-10,82,68,52,63,55,50,100,71,34,30.02,29.91,5,2,20,0.54
2013-5-11,74,65,61,65,62,60,100,91,66,29.94,29.72,5,2,16,0.55
2013-5-12,64,58,49,61,41,23,100,58,26,29.98,29.72,7,3,23,0.02
2013-5-13,54,48,39,34,27,18,82,48,24,30.13,29.99,5,2,18,0.00
2013-5-14,60,48,34,38,29,21,90,52,23,30.18,30.05,5,2,15,0.00
2013-5-15,72,61,51,59,49,32,89,64,47,30.08,29.73,5,2,17,0.00
2013-5-16,81,67,56,63,59,55,100,78,48,29.86,29.73,4,1,13,0.01
2013-5-17,74,63,51,57,45,38,93,58,28,30.19,29.88,5,2,14,0.00
2013-5-18,68,60,56,56,51,47,97,74,55,30.29,30.20,3,1,13,0.08
2013-5-19,61,58,56,61,58,56,100,100,98,30.28,30.16,3,2,12,0.25
2013-5-20,78,67,58,70,64,58,100,90,69,30.17,30.00,3,1,9,0.00
2013-5-21,81,73,62,69,67,62,100,83,64,30.00,29.88,5,2,14,0.00
2013-5-22,86,76,68,71,68,65,99,79,52,29.93,29.85,3,2,16,0.00
2013-5-23,80,72,68,68,66,63,91,82,58,29.91,29.78,4,2,17,0.33
2013-5-24,64,55,45,63,51,37,100,87,64,30.03,29.73,7,3,22,0.13
2013-5-25,60,52,45,41,35,30,83,55,33,30.07,29.98,8,4,27,0.00
2013-5-26,69,57,47,40,34,29,69,44,23,30.21,30.05,6,2,22,0.00
2013-5-27,72,58,40,46,39,34,91,54,26,30.27,30.16,3,1,13,0.00
2013-5-28,64,59,52,64,56,46,100,91,68,30.21,30.11,2,0,10,0.24
2013-5-29,89,74,60,69,64,60,100,73,41,30.12,30.05,2,0,13,0.00
2013-5-30,92,80,65,68,64,59,98,62,35,30.16,30.10,2,0,13,0.00
2013-5-31,92,80,66,68,64,58,95,61,33,30.15,30.04,3,1,15,0.00
2013-6-1,90,80,69,67,66,61,87,63,38,30.06,29.94,3,1,16,0.00
2013-6-2,86,79,72,68,67,63,82,67,53,29.94,29.82,4,2,17,0.00
2013-6-3,76,71,65,69,64,53,96,79,57,29.89,29.83,1,0,9,0.84
2013-6-4,75,64,55,63,49,42,99,60,34,30.12,29.91,4,1,17,0.00
2013-6-5,78,65,49,53,46,41,89,56,29,30.20,30.10,3,0,12,0.00
2013-6-6,72,64,54,62,55,50,98,76,46,30.14,29.97,3,1,16,0.14
2013-6-7,66,63,60,66,63,60,100,100,98,29.97,29.61,3,2,18,2.61
2013-6-8,76,67,59,65,62,59,100,85,60,30.08,29.61,5,1,15,0.00
2013-6-9,81,70,57,65,60,56,100,74,46,30.20,30.09,1,0,12,0.00
2013-6-10,72,69,65,72,68,62,100,95,78,30.15,29.81,4,1,14,1.61
2013-6-11,80,74,66,70,66,60,100,78,58,29.79,29.70,3,1,20,0.03
2013-6-12,81,73,64,62,59,55,87,63,41,29.85,29.78,4,1,18,0.00
2013-6-13,68,67,64,66,58,54,100,74,63,29.85,29.57,3,1,13,0.51
2013-6-15,81,68,54,60,56,53,100,70,41,30.05,29.94,3,0,16,0.00
2013-6-16,81,69,57,68,61,54,94,76,48,30.02,29.84,3,1,16,0.00
2013-6-17,86,74,64,68,65,62,100,75,50,29.95,29.87,2,0,11,0.00
2013-6-18,78,68,63,72,66,63,100,93,71,29.93,29.83,3,0,10,0.42
2013-6-19,77,67,59,64,55,47,100,70,35,30.16,29.88,3,1,14,0.00
2013-6-20,79,68,55,57,54,48,100,64,43,30.28,30.17,2,1,13,0.00
2013-6-21,82,71,56,60,53,48,90,56,36,30.32,30.25,2,0,11,0.00
2013-6-22,85,72,56,66,60,53,99,69,48,30.28,30.14,2,1,12,0.00
2013-6-23,85,75,62,72,66,60,98,76,54,30.22,30.08,4,1,12,0.00
2013-6-24,92,78,70,74,66,60,92,70,47,30.11,30.01,3,0,19,0.00
2013-6-25,91,77,66,74,67,62,94,73,47,30.04,29.87,3,1,17,0.09
2013-6-26,90,77,66,72,67,62,99,74,52,29.90,29.81,1,0,10,0.00
2013-6-27,88,76,69,74,71,68,100,86,54,29.84,29.59,5,1,19,0.34
2013-6-28,85,74,68,72,69,61,100,85,53,29.61,29.51,3,1,14,0.09
2013-6-29,86,76,67,69,65,62,100,74,46,29.72,29.51,3,1,11,0.00
2013-6-30,83,74,68,74,69,65,100,85,65,29.90,29.72,2,0,11,0.23
2013-7-1,77,74,71,69,66,64,86,77,64,30.03,29.89,3,1,14,0.25
2013-7-2,83,76,73,70,66,63,89,71,54,30.20,30.04,3,2,14,0.00
2013-7-3,85,77,71,75,70,64,94,82,62,30.26,30.19,2,1,10,0.02
2013-7-4,88,80,73,72,70,65,89,71,52,30.27,30.19,4,2,13,0.00
2013-7-5,90,82,73,73,71,65,94,71,52,30.24,30.14,4,2,16,0.00
2013-7-6,94,84,74,74,72,70,96,69,47,30.18,30.08,2,1,11,0.00
2013-7-7,92,82,71,74,71,67,93,72,53,30.11,30.00,3,1,18,0.18
2013-7-8,86,75,68,72,68,63,100,81,56,30.09,30.04,2,0,10,0.01
2013-7-9,86,76,68,74,69,66,98,81,59,30.10,30.03,1,0,13,0.06
2013-7-10,86,80,73,75,71,66,100,78,53,30.04,29.86,3,1,13,0.00
2013-7-11,84,78,74,71,67,59,89,70,50,29.94,29.84,2,1,8,0.01
2013-7-12,75,72,68,68,64,57,94,78,53,30.05,29.93,4,2,17,0.83
2013-7-13,87,76,68,75,70,62,94,82,55,30.31,30.06,4,0,10,0.00
2013-7-14,90,78,73,73,72,69,98,82,53,30.37,30.30,0,0,7,0.00
2013-7-15,94,83,72,75,71,64,91,69,47,30.30,30.17,1,0,9,0.00
2013-7-16,92,82,73,74,70,64,100,69,42,30.24,30.17,3,0,13,0.00
2013-7-17,94,83,71,74,69,65,93,66,40,30.22,30.10,0,0,9,0.00
2013-7-18,95,85,75,77,73,69,90,70,48,30.11,30.01,0,0,8,0.00
2013-7-19,95,87,79,78,76,75,93,73,55,30.03,29.85,1,0,14,0.00
2013-7-20,91,83,73,75,71,67,93,68,55,29.88,29.80,2,0,19,0.09
2013-7-21,88,78,72,73,70,67,94,76,53,29.96,29.87,1,0,9,0.00
2013-7-22,85,76,72,74,69,62,90,79,64,29.96,29.79,1,0,9,0.05
2013-7-23,86,77,69,75,68,61,90,75,58,29.79,29.62,3,0,23,0.52
2013-7-24,78,74,67,68,63,53,95,71,53,29.94,29.67,2,0,13,0.00
2013-7-25,70,65,59,58,54,50,79,68,58,30.06,29.95,1,0,13,0.00
2013-7-26,81,71,61,60,58,56,89,66,43,30.06,30.02,1,0,10,0.00
2013-7-27,84,73,61,68,62,58,100,72,47,30.07,29.95,1,0,13,0.00
2013-7-28,80,72,66,71,66,61,95,81,65,29.98,29.91,4,0,11,0.38
2013-7-29,82,72,64,67,60,52,99,70,36,30.14,29.97,1,0,11,0.04
2013-7-30,79,69,58,60,58,55,97,70,44,30.21,30.14,1,0,10,0.00
2013-7-31,82,71,58,66,61,56,100,73,43,30.18,30.05,0,0,6,0.00
2013-8-1,73,69,66,71,66,61,100,90,72,30.05,29.84,3,1,14,0.85
2013-8-2,84,74,67,68,65,59,100,76,45,29.95,29.83,1,0,11,0.00
2013-8-3,78,70,65,67,65,62,91,82,67,29.96,29.90,1,0,11,0.00
2013-8-4,77,69,60,64,59,53,100,73,43,30.01,29.89,2,0,16,0.00
2013-8-5,76,66,55,57,53,47,98,67,35,30.10,30.01,1,0,15,0.00
2013-8-6,78,66,55,64,58,54,99,77,47,30.13,30.05,1,0,11,0.00
2013-8-7,74,70,66,69,66,63,94,87,75,30.13,30.06,2,1,11,0.00
2013-8-8,85,76,69,74,70,66,98,83,64,30.07,30.00,2,1,13,0.14
2013-8-9,84,78,74,73,71,69,92,81,66,30.02,29.84,3,1,13,0.15
2013-8-10,82,75,69,71,62,54,93,67,42,30.07,29.90,1,0,7,0.00
2013-8-11,85,73,60,66,62,54,100,71,44,30.15,30.03,0,0,7,0.00
2013-8-12,84,74,68,69,66,62,97,78,49,30.05,29.94,0,0,8,0.00
2013-8-13,81,72,64,71,68,64,100,87,62,29.95,29.74,6,0,23,2.44
2013-8-14,73,66,57,69,53,47,90,62,47,30.08,29.79,4,1,20,0.00
2013-8-15,76,64,51,55,51,46,99,69,35,30.17,30.08,1,0,9,0.00
2013-8-16,79,66,52,58,54,50,100,68,37,30.22,30.15,0,0,6,0.00
2013-8-17,81,68,55,60,56,53,100,69,39,30.28,30.22,0,0,8,0.00
2013-8-18,75,67,62,63,60,55,99,80,52,30.27,30.16,0,0,6,0.03
2013-8-19,76,68,60,66,62,57,100,82,57,30.17,30.07,0,0,11,0.00
2013-8-20,86,73,61,68,64,59,100,76,44,30.16,30.08,0,0,8,0.00
2013-8-21,88,75,63,72,65,59,100,75,39,30.20,30.09,0,0,7,0.00
2013-8-22,82,76,72,72,68,61,92,78,62,30.09,29.92,1,0,13,0.18
2013-8-23,75,70,63,67,63,60,97,79,62,30.11,29.93,1,0,8,0.00
2013-8-24,79,68,58,61,54,48,99,67,34,30.36,30.12,1,0,11,0.01
2013-8-25,80,66,53,60,54,50,100,69,35,30.43,30.27,0,0,10,0.00
2013-8-26,85,73,62,67,61,54,87,69,50,30.28,29.97,1,0,12,0.00
2013-8-27,87,77,70,68,64,60,85,65,45,29.96,29.89,2,0,13,0.00
2013-8-28,72,71,68,71,68,62,96,93,77,29.92,29.85,2,0,9,1.74
2013-8-29,80,73,69,70,67,61,97,82,60,30.04,29.89,2,0,9,0.00
2013-8-30,81,74,67,70,65,59,87,75,66,30.05,29.89,3,0,11,0.00
2013-8-31,85,77,70,74,69,65,89,78,64,29.91,29.81,3,1,11,0.00
2013-9-1,88,79,72,73,70,66,93,76,50,29.87,29.80,2,0,10,0.00
2013-9-2,80,75,70,72,67,64,93,76,62,29.82,29.73,3,0,9,1.28
2013-9-3,81,73,66,68,60,46,99,66,45,29.93,29.74,2,0,12,0.01
2013-9-4,80,68,58,59,56,54,91,67,42,30.05,29.93,1,0,11,0.00
2013-9-5,76,67,56,61,55,43,97,70,37,30.16,29.99,3,0,14,0.00
2013-9-6,71,60,49,50,44,36,92,61,29,30.27,30.16,1,0,12,0.00
2013-9-7,78,62,46,59,51,46,100,71,37,30.16,29.94,0,0,10,0.00
2013-9-8,80,70,62,64,58,44,93,67,44,30.08,29.88,4,1,15,0.00
2013-9-9,75,63,48,61,53,46,96,71,53,30.23,30.10,1,0,10,0.00
2013-9-10,86,75,67,74,69,62,92,81,66,30.20,30.10,3,1,10,0.00
2013-9-11,91,81,72,75,71,66,95,75,56,30.15,30.03,2,0,11,0.00
2013-9-12,87,76,68,71,67,52,94,73,53,30.02,29.75,1,0,16,0.32
2013-9-13,75,67,59,66,58,50,100,75,50,29.91,29.68,5,1,17,0.17
2013-9-14,62,56,48,50,47,46,96,74,58,30.16,29.91,3,1,16,0.00
2013-9-15,71,57,43,56,49,43,100,78,47,30.24,30.11,1,0,11,0.01
2013-9-16,69,61,56,60,56,49,100,84,56,30.25,30.05,2,0,11,0.10
2013-9-17,64,54,44,50,42,38,92,66,39,30.44,30.25,2,0,13,0.00
2013-9-18,70,54,40,50,44,39,99,74,37,30.36,30.21,1,0,8,0.00
2013-9-19,74,59,44,57,50,43,100,78,44,30.21,30.10,1,0,9,0.00
2013-9-20,77,64,50,61,55,49,100,78,46,30.11,29.99,2,0,8,0.01
2013-9-21,77,66,53,66,59,52,100,79,46,30.02,29.70,3,1,18,0.89
2013-9-22,67,61,52,64,52,44,100,76,48,29.94,29.69,4,2,15,0.42
2013-9-23,65,55,44,45,42,40,88,64,47,30.07,29.94,4,1,20,0.00
2013-9-24,70,54,40,53,45,39,97,75,44,30.09,29.93,2,0,10,0.00
2013-9-25,71,56,43,53,47,42,99,76,37,29.98,29.90,1,0,7,0.01
2013-9-26,72,58,47,58,52,46,100,83,54,30.10,29.95,1,0,8,0.00
2013-9-27,70,60,54,56,54,50,100,80,52,30.27,30.10,1,0,6,0.00
2013-9-28,71,60,52,55,52,47,99,76,44,30.32,30.25,2,0,10,0.00
2013-9-29,71,57,46,55,51,46,100,82,51,30.24,30.09,1,0,11,0.00
2013-9-30,72,57,45,56,50,44,100,80,46,30.10,30.00,1,0,7,0.01
2013-10-1,78,62,49,61,55,48,99,82,50,30.05,29.95,1,0,10,0.00
2013-10-2,82,67,54,64,59,54,100,80,50,30.05,29.97,2,0,11,0.01
2013-10-3,81,68,55,65,60,55,100,80,44,30.14,30.04,0,0,6,0.00
2013-10-4,85,71,60,68,64,60,100,81,52,30.09,30.01,1,0,9,0.00
2013-10-5,84,72,63,69,65,63,100,80,54,30.10,30.02,3,0,11,0.00
2013-10-6,80,69,65,73,66,64,99,91,71,30.08,29.99,2,1,9,0.14
2013-10-7,76,66,56,71,64,51,99,93,71,30.02,29.79,6,2,25,0.57
2013-10-8,65,55,46,51,47,44,99,79,48,30.32,30.03,4,1,14,0.01
2013-10-9,60,54,47,49,47,43,97,79,63,30.37,30.26,3,1,16,0.00
2013-10-10,59,55,51,56,52,46,98,90,74,30.25,30.02,4,2,15,0.51
2013-10-11,64,60,57,61,58,55,100,94,83,30.06,29.97,5,3,17,1.29
2013-10-12,69,63,59,59,53,43,86,69,52,30.23,30.04,5,3,18,0.00
2013-10-13,66,60,50,55,50,46,92,72,53,30.37,30.23,4,2,17,0.00
2013-10-14,67,54,44,53,48,43,98,83,56,30.36,30.25,1,0,8,0.00
2013-10-15,71,55,44,54,48,43,99,78,40,30.26,30.12,1,0,9,0.01
2013-10-16,67,58,50,61,55,48,98,91,77,30.11,29.93,0,0,6,0.00
2013-10-17,71,65,61,64,61,60,100,89,72,29.93,29.72,2,0,16,0.04
2013-10-18,65,56,45,62,46,42,92,70,49,30.01,29.74,3,1,18,0.00
2013-10-19,63,51,40,55,46,39,99,82,52,30.02,29.78,1,0,12,0.15
2013-10-20,60,51,41,52,40,35,96,68,40,30.09,29.81,3,1,22,0.00
2013-10-21,65,50,36,46,39,36,99,71,35,30.16,30.00,3,0,17,0.00
2013-10-22,63,53,43,52,46,36,98,79,58,29.99,29.81,1,0,10,0.01
2013-10-23,55,46,40,40,36,33,87,69,51,29.84,29.64,4,0,13,0.00
2013-10-24,51,43,37,35,30,26,85,64,39,30.07,29.81,3,1,17,0.00
2013-10-25,52,42,34,34,30,28,85,66,42,30.26,30.07,4,1,17,0.00
2013-10-26,54,43,30,33,30,28,96,65,37,30.26,29.92,5,1,23,0.00
2013-10-27,55,47,36,34,32,30,83,57,39,30.15,29.91,3,1,15,0.00
2013-10-28,60,40,31,37,32,29,95,77,40,30.26,30.15,1,0,8,0.00
2013-10-29,59,45,34,42,37,32,94,76,46,30.40,30.31,1,0,8,0.00
2013-10-30,57,49,40,52,46,38,97,91,82,30.36,30.19,1,0,10,0.01
2013-10-31,67,58,46,60,55,44,99,87,72,30.23,29.83,4,1,15,0.02
2013-11-1,68,64,53,64,58,53,99,85,61,29.80,29.60,7,2,31,0.20
2013-11-2,66,56,48,54,48,40,100,77,45,29.82,29.64,2,0,13,0.00
2013-11-3,50,44,34,42,31,18,88,61,36,30.47,29.82,6,2,21,0.00
2013-11-4,45,35,27,27,19,11,78,55,25,30.65,30.47,3,0,12,0.00
2013-11-5,57,44,31,42,35,26,85,71,52,30.64,30.49,1,0,10,0.00
2013-11-6,64,54,43,53,46,40,91,75,54,30.49,30.08,2,1,12,0.00
2013-11-7,60,54,42,57,50,36,95,88,70,30.07,29.82,7,2,21,0.03
2013-11-8,48,42,33,36,27,25,80,58,42,30.27,30.00,5,1,19,0.00
2013-11-9,49,40,28,33,27,23,89,63,37,30.33,30.02,2,0,12,0.00
2013-11-10,59,46,34,35,30,24,90,57,35,30.12,29.90,5,2,26,0.00
2013-11-11,55,47,36,34,29,25,71,50,37,30.25,30.00,3,1,17,0.00
2013-11-12,49,37,25,36,22,12,82,54,38,30.34,29.96,8,3,27,0.00
2013-11-13,38,30,24,16,12,8,67,48,29,30.42,30.33,7,2,20,0.00
2013-11-14,54,41,29,23,12,0,58,35,11,30.32,30.21,4,2,18,0.00
2013-11-15,57,41,29,33,28,22,84,62,30,30.27,30.18,2,0,9,0.00
2013-11-16,58,48,38,48,43,32,96,84,66,30.34,30.26,3,0,11,0.02
2013-11-17,65,58,50,59,53,47,94,85,71,30.26,29.79,5,2,18,0.00
2013-11-18,64,59,49,62,40,25,100,55,27,29.85,29.66,6,3,21,0.18
2013-11-19,48,42,32,27,23,20,63,47,40,30.36,29.86,9,4,26,0.00
2013-11-20,45,33,26,20,16,2,75,52,18,30.59,30.37,3,1,10,0.00
2013-11-21,52,39,23,40,29,17,80,66,54,30.60,30.40,2,0,10,0.00
2013-11-22,56,51,48,51,47,40,99,87,73,30.39,29.97,2,1,9,0.03
2013-11-23,51,41,28,50,27,14,99,58,40,30.10,29.98,8,4,31,0.01
2013-11-24,29,25,21,12,-1,-6,49,33,23,30.44,30.10,10,5,35,0.00
2013-11-25,34,26,19,15,9,2,60,48,36,30.53,30.35,4,2,17,0.00
2013-11-26,46,35,31,46,26,15,100,71,48,30.35,29.68,5,2,12,0.90
2013-11-27,61,42,31,61,39,17,100,90,55,29.85,29.43,8,4,25,1.95
2013-11-28,34,30,26,21,15,12,75,56,43,30.48,29.87,7,3,29,0.00
2013-11-29,39,30,22,21,18,15,83,63,40,30.73,30.47,3,0,13,0.00
2013-11-30,38,29,18,26,20,14,84,68,56,30.73,30.39,0,0,9,0.00
2013-12-1,47,37,27,31,27,23,86,69,51,30.38,30.04,0,0,6,0.00
2013-12-2,49,40,34,32,31,29,82,69,49,30.03,29.89,0,0,1,0.00
2013-12-3,51,41,33,37,34,30,88,76,51,30.02,29.89,0,0,5,0.00
2013-12-4,52,43,32,44,37,30,94,80,63,30.12,30.02,0,0,9,0.00
2013-12-5,58,53,48,58,52,44,100,96,82,30.11,29.94,1,0,12,0.00
2013-12-6,60,48,36,60,47,35,100,98,87,30.17,29.88,4,2,15,0.95
2013-12-7,38,34,28,35,29,24,98,82,61,30.52,30.10,6,2,21,0.12
2013-12-8,29,27,25,28,21,15,95,79,59,30.59,30.34,3,1,9,0.00
2013-12-9,34,33,29,34,32,28,99,98,95,30.32,30.01,2,0,8,0.89
2013-12-10,32,30,23,32,29,20,98,97,91,30.17,29.95,1,0,11,0.30
2013-12-11,31,23,14,21,17,11,92,80,58,30.38,30.18,2,0,16,0.03
2013-12-12,26,20,16,18,11,4,92,69,48,30.39,30.21,4,1,14,0.00
2013-12-13,34,27,19,20,12,4,79,54,43,30.33,30.17,4,1,19,0.00
2013-12-14,30,28,26,29,24,20,98,85,68,30.42,29.72,5,3,15,0.59
2013-12-15,37,32,28,34,28,20,100,87,65,29.89,29.58,5,2,23,0.53
2013-12-16,31,25,19,21,12,8,72,57,42,30.24,29.88,6,2,20,0.00
2013-12-17,30,26,22,26,21,14,91,82,58,30.21,29.95,2,0,7,0.07
2013-12-18,35,27,20,23,20,17,92,74,55,30.20,29.96,3,0,23,0.00
2013-12-19,47,34,21,31,25,17,89,73,48,30.22,30.07,1,0,16,0.00
2013-12-20,52,41,31,40,33,29,93,75,50,30.11,30.00,1,0,9,0.00
2013-12-21,65,53,41,57,48,40,99,86,67,30.02,29.92,4,1,17,0.00
2013-12-22,66,63,60,64,60,57,99,93,86,29.99,29.83,9,4,26,0.10
2013-12-23,60,54,41,59,52,33,100,96,74,30.18,29.94,5,1,18,0.47
2013-12-24,40,33,25,33,19,9,75,56,46,30.39,30.15,7,3,21,0.00
2013-12-25,28,24,19,12,6,2,58,46,39,30.55,30.40,5,1,14,0.00
2013-12-26,38,28,21,25,20,13,85,73,54,30.41,30.20,3,0,19,0.00
2013-12-27,44,30,21,23,20,15,90,68,31,30.39,30.29,4,0,19,0.00
2013-12-28,56,40,24,29,24,20,89,59,31,30.31,30.11,4,1,17,0.01
2013-12-29,45,41,37,45,37,29,100,87,59,30.10,29.46,4,1,14,1.06
2013-12-30,43,37,27,39,29,13,99,75,54,30.18,29.75,4,1,17,0.00
2013-12-31,35,28,23,25,14,9,70,55,44,30.32,30.08,4,1,23,0.00
2014-1-1,38,30,21,22,16,9,69,57,46,30.42,30.22,1,0,8,0.00
2014-1-2,32,28,20,24,22,18,92,79,63,30.19,29.66,5,2,14,0.34